Regional Weather Roundup
Issued by NWS State College, PA

Home | Current Version | Previous Version | Text Only | Print | Product List | Glossary On
Versions: 1 2 3 4 5 6 7 8 9 10 11 12 13 14 15 16 17 18 19 20 21 22 23 24 25 26 27 28 29 30 31 32 33 34 35 36 37 38 39 40 41 42 43 44 45 46 47 48 49 50
000
ASUS41 KCTP 280210
RWRCTP

REGIONAL WEATHER ROUNDUP
NATIONAL WEATHER SERVICE STATE COLLEGE PA
1000 PM EDT WED MAY 27 2015

Note: "fair" indicates few or no clouds below 12,000 feet with no
significant weather and/or obstructions to visibility.

* = STATION THAT DOES NOT REPORT PRECIPITATION /E.G. RAIN...SNOW...ETC/
    THUNDER OR FOG.

PAZ002>004-007>009-013>016-020>023-029>032-280300-
WESTERN PENNSYLVANIA

CITY           SKY/WX    TMP DP  RH WIND       PRES   REMARKS
ERIE           LGT RAIN  65  60  84 S12       30.07R
MEADVILLE      LGT RAIN  62  59  90 CALM      30.12R FOG
FRANKLIN*      MOCLDY    64  55  72 N5        30.12S
NEW CASTLE     MOCLDY    71  63  76 CALM      30.09R
BEAVER COUNTY  NOT AVBL
BUTLER*        CLEAR     72  61  68 SW7       30.12R
PITTSBURGH INT MOCLDY    74  62  66 S6        30.10R
PITTSBURGH     CLEAR     73  59  61 S8        30.11R
INDIANA*       CLEAR     70  63  78 SW5       30.15S
LATROBE        CLEAR     72  63  73 SW7       30.13F
WASHINGTON CO* CLEAR     66  61  82 CALM      30.13R
$$

PAZ004>006-010>012-017>019-024>028-033>037-041-042-045-046-049>053-280300-
CENTRAL PENNSYLVANIA

CITY           SKY/WX    TMP DP  RH WIND       PRES   REMARKS
BRADFORD       CLOUDY    63  56  78 NW8       30.15R
DUBOIS         PTCLDY    71  58  63 S5        30.12R
CLEARFIELD     PTCLDY    69  59  70 S3        30.13R
JOHNSTOWN      PTCLDY    69  58  67 S7        30.16S
ALTOONA        CLEAR     69  60  73 S6        30.15R
STATE COLLEGE  NOT AVBL
WILLIAMSPORT   CLEAR     75  63  66 N3        30.08R
SELINSGROVE    CLEAR     73  67  81 S3        30.12R
FT INDIANTOWN  FOG       66  66 100 NE2       30.15R VSB 1/2
CAPITAL CITY   CLEAR     72  66  81 SE6       30.13R
HARRISBURG     PTCLDY    72  68  87 SE6       30.13R
YORK           PTCLDY    67  66  97 CALM      30.15R
$$

PAZ038>040-043-044-047-048-054-055-060>062-067>071-280300-
EASTERN PENNSYLVANIA

CITY           SKY/WX    TMP DP  RH WIND       PRES   REMARKS
SCRANTON       CLEAR     71  65  81 SW5       30.13R
MOUNT POCONO   PTCLDY    65  63  93 W5        30.19R FOG
ALLENTOWN      PTCLDY    69  67  93 CALM      30.15R
QUAKERTOWN*    PTCLDY    68  68 100 CALM      30.17R
READING        PTCLDY    70  67  90 S5        30.14R
LANCASTER      MOCLDY    68  65  90 E5        30.15R
COATESVILLE    MOCLDY    70  70 100 CALM      30.18R
POTTSTOWN      MOCLDY    70  70 100 CALM      30.17R
BLUE BELL      MOCLDY    72  70  94 CALM      30.16R
DOYLESTOWN     PTCLDY    68  68 100 CALM      30.15R
WILLOW GROVE   NOT AVBL
NORTH PHILA    MOCLDY    74  67  78 SW5       30.17R
PHILADELPHIA   MOCLDY    74  70  87 S6        30.16R
$$



USA.gov is the U.S. government's official web portal to all federal, state and local government web resources and services.